Weather History for KARB - May, 2013

Change the Weather History Date:

Sunday, May 26, 2013

  Actual Average (KDTW) Record (KDTW)
Temperature  
Mean Temperature 51 °F 63 °F  
Max Temperature 71 °F 73 °F 92 °F (1944)
Min Temperature 32 °F 53 °F 36 °F (1983)
Degree Days  
Heating Degree Days 14 4  
Month to date heating degree days 190  
Since 1 July heating degree days 6084  
Cooling Degree Days 0 2  
Month to date cooling degree days 28  
Year to date cooling degree days 34  
Growing Degree Days 1 (Base 50)    
Moisture  
Dew Point 34 °F    
Average Humidity 70    
Maximum Humidity 100    
Minimum Humidity 26    
Precipitation  
Precipitation 0.00 in 0.11 in 2.56 in (1968)
Month to date precipitation 2.81  
Year to date precipitation 11.97  
Snow  
Snow 0.00 in 0.00 in T in (1961)
Month to date snowfall 0.0  
Since 1 July snowfall 42.5  
Snow Depth -    
Sea Level Pressure  
Sea Level Pressure 30.30 in    
Wind  
Wind Speed 1 mph (NE)    
Max Wind Speed 7 mph    
Max Gust Speed -    
Visibility 7 miles    
Events Fog    
T = Trace of Precipitation, MM = Missing Value Source: NWS Daily Summary

Daily Weather History Graph

Daily Weather History Graph

Search for Another Location

Airport or City:

Trip Planner

Search our weather history database for the weather conditions in past years. The results will help you decide how hot, cold, wet, or windy it might be!

Date:

Astronomy

May. 26, 2013 Rise Set
Actual Time 6:04 AM EDT 9:00 PM EDT
Civil Twilight 5:31 AM EDT 9:33 PM EDT
Nautical Twilight 4:49 AM EDT 10:15 PM EDT
Astronomical Twilight 3:59 AM EDT 11:05 PM EDT
Moon 10:46 PM EDT (5/26) 7:32 AM EDT (5/26)
Length of Visible Light 16h 02m
Length of Day
14h 55m
Waning Gibbous, 97% of the Moon is Illuminated
May 26
Waning Gibbous
May 31
Last Quarter
Jun 8
New
Jun 16
First Quarter
Jun 23
Full

Hourly Weather History & Observations

Time (EDT) Temp. Windchill Dew Point Humidity Pressure Visibility Wind Dir Wind Speed Gust Speed Precip Events Conditions
12:53 AM 42.1 °F - 37.9 °F 85% 30.33 in 10.0 mi Calm Calm - N/A   Clear
1:53 AM 37.0 °F - 35.1 °F 93% 30.32 in 10.0 mi Calm Calm - N/A   Clear
2:53 AM 36.0 °F - 34.0 °F 93% 30.31 in 10.0 mi Calm Calm - N/A   Clear
3:53 AM 36.0 °F - 35.1 °F 97% 30.31 in 10.0 mi Calm Calm - N/A   Clear
4:29 AM 35.6 °F - 33.8 °F 93% 30.30 in 2.0 mi Calm Calm - N/A   Clear
4:38 AM 33.8 °F - 33.8 °F 100% 30.30 in 9.0 mi Calm Calm - N/A   Clear
4:49 AM 35.6 °F - 33.8 °F 93% 30.30 in 2.5 mi Calm Calm - N/A   Clear
4:53 AM 35.1 °F - 34.0 °F 96% 30.31 in 5.0 mi Calm Calm - N/A   Clear
4:56 AM 33.8 °F - 33.8 °F 100% 30.30 in 1.2 mi Calm Calm - N/A   Clear
5:04 AM 33.8 °F - 33.8 °F 100% 30.30 in 0.8 mi Calm Calm - N/A   Clear
5:07 AM 33.8 °F - 32.0 °F 93% 30.30 in 1.5 mi Calm Calm - N/A   Clear
5:09 AM 32.0 °F - 30.2 °F 93% 30.30 in 3.0 mi Calm Calm - N/A   Clear
5:18 AM 35.6 °F - 33.8 °F 93% 30.31 in 1.8 mi Calm Calm - N/A   Clear
5:29 AM 33.8 °F - 33.8 °F 100% 30.31 in 3.0 mi Calm Calm - N/A   Clear
5:35 AM 33.8 °F - 33.8 °F 100% 30.31 in 1.8 mi Calm Calm - N/A   Clear
5:40 AM 33.8 °F - 33.8 °F 100% 30.31 in 0.8 mi Calm Calm - N/A   Clear
5:53 AM 35.1 °F 32.2 °F 34.0 °F 96% 30.33 in 0.8 mi West 3.5 mph - N/A   Clear
6:53 AM 34.0 °F - 34.0 °F 100% 30.35 in 1.2 mi Calm Calm - N/A   Clear
7:01 AM 33.8 °F - 33.8 °F 100% 30.33 in 0.5 mi Calm Calm - N/A Fog Fog
7:10 AM 35.6 °F - 33.8 °F 93% 30.34 in 1.5 mi Calm Calm - N/A   Clear
7:16 AM 35.6 °F - 35.6 °F 100% 30.34 in 3.0 mi Calm Calm - N/A   Clear
7:53 AM 45.0 °F - 42.1 °F 90% 30.35 in 10.0 mi Calm Calm - N/A   Clear
8:53 AM 55.0 °F - 34.0 °F 45% 30.35 in 10.0 mi Calm Calm - N/A   Clear
9:53 AM 57.9 °F - 30.0 °F 35% 30.35 in 10.0 mi Calm Calm - N/A   Clear
10:53 AM 61.0 °F - 28.9 °F 30% 30.33 in 10.0 mi North 3.5 mph - N/A   Clear
11:53 AM 62.1 °F - 30.0 °F 30% 30.33 in 10.0 mi Calm Calm - N/A   Clear
12:53 PM 66.0 °F - 32.0 °F 28% 30.33 in 10.0 mi Variable 4.6 mph - N/A   Clear
1:53 PM 66.0 °F - 33.1 °F 29% 30.31 in 10.0 mi Variable 3.5 mph - N/A   Clear
2:53 PM 68.0 °F - 34.0 °F 28% 30.30 in 10.0 mi Variable 3.5 mph - N/A   Clear
3:53 PM 70.0 °F - 34.0 °F 27% 30.28 in 10.0 mi ENE 4.6 mph - N/A   Clear
4:53 PM 69.1 °F - 33.1 °F 26% 30.27 in 10.0 mi NW 3.5 mph - N/A   Clear
5:53 PM 68.0 °F - 34.0 °F 28% 30.25 in 10.0 mi Calm Calm - N/A   Clear
6:53 PM 66.9 °F - 36.0 °F 32% 30.25 in 10.0 mi NE 5.8 mph - N/A   Clear
7:53 PM 64.0 °F - 37.0 °F 37% 30.23 in 10.0 mi NNE 5.8 mph - N/A   Clear
8:53 PM 60.1 °F - 37.9 °F 44% 30.23 in 10.0 mi ESE 5.8 mph - N/A   Clear
9:53 PM 57.9 °F - 37.9 °F 47% 30.25 in 10.0 mi East 4.6 mph - N/A   Clear
10:53 PM 55.9 °F - 37.0 °F 49% 30.26 in 10.0 mi East 6.9 mph - N/A   Clear
11:53 PM 54.0 °F - 37.0 °F 53% 30.27 in 10.0 mi East 4.6 mph - N/A   Clear